{"data":{"norad_id":68820,"epoch":"2026-05-25T04:00:03.998880Z","epoch_age_seconds":60920,"freshness":"FRESH","line1":"1 68820U 26089U   26145.16671295 -.00092890  00000+0 -62771-3 0  9999","line2":"2 68820  97.2849 351.8413 0001440  86.3089 268.3925 15.75225280  6034","mean_motion":15.7522528,"eccentricity":0.000144,"inclination_deg":97.2849,"raan_deg":351.8413,"arg_perigee_deg":86.3089,"mean_anomaly_deg":268.3925,"bstar":-0.00062771,"rev_number":603,"period_min":91.415495820382,"perigee_km":343.02221108611,"apogee_km":344.95818371896,"semimajor_km":6722.1271974025,"source":"CELESTRAK","updated_at":"2026-05-25T13:38:22.043879Z"}}